"2010-09-02 00:00:00",124141,0.804,313.2,16.32,0.211,20.77,110.0568,25.04,25.87,14.75,0,111.3,13.1,25.88,275.2
"2010-09-02 00:00:30",124142,1.358,318.4,7.939,0.324,20.85,110.0508,25.02,25.85,14.94,0,111.3,13.1,25.86,280.4
"2010-09-02 00:01:00",124143,0.828,260.9,45.94,0.564,20.87,110.0505,25.02,25.85,14.91,0,111.3,13.1,25.86,222.9
"2010-09-02 00:01:30",124144,2.666,267.7,7.202,0.9,20.93,110.0488,25.02,25.85,14.17,0,111.3,13.1,25.86,229.7
"2010-09-02 00:02:00",124145,1.496,268,16.94,0.538,20.91,110.0383,24.99,25.88,14.1,0,111.3,13.1,25.83,230.0
"2010-09-02 00:02:30",124146,3.271,262.1,8.69,0.626,20.94,110.0412,25,25.89,14.33,0,111.3,13.1,25.84,224.1
"2010-09-02 00:03:00",124147,3.005,255.5,7.439,0.433,21.02,110.0455,25.01,25.91,14.24,0,111.3,13.1,25.85,217.5
"2010-09-02 00:03:30",124148,4.037,245.8,10.44,0.489,21.13,110.0567,25.04,25.89,14.09,0,111.3,13.1,25.88,207.8
"2010-09-02 00:04:00",124149,2.441,251.8,7.832,0.36,21.07,110.0659,25.06,25.91,14.32,0,111.3,13.1,25.90,213.8
"2010-09-02 00:04:30",124150,3.243,254.4,18.61,0.629,21.17,110.0592,25.05,25.9,14.21,0,111.3,13.1,25.89,216.4
"2010-09-02 00:05:00",124151,3.927,243.4,14.47,0.54,21.33,110.067,25.07,25.89,14.09,0,111.3,13.09,25.91,205.4
"2010-09-02 00:05:30",124152,3.272,287.2,7.433,0.512,21.37,110.0676,25.07,25.93,14.22,0,111.3,13.09,25.91,249.2
"2010-09-02 00:06:00",124153,2.614,265.6,13.1,0.792,21.42,110.0704,25.08,25.94,14.28,0,111.3,13.09,25.91,227.6
"2010-09-02 00:06:30",124154,3.151,260.7,12.75,0.52,21.4,110.0755,25.09,25.96,14.24,0,111.3,13.09,25.93,222.7
"2010-09-02 00:07:00",124155,3.589,246.8,13.03,0.326,21.43,110.0738,25.08,25.97,14.2,0,111.3,13.09,25.92,208.8
"2010-09-02 00:07:30",124156,3.437,245.7,6.223,0.269,21.44,110.0687,25.07,25.96,14.21,0,111.3,13.09,25.91,207.7
"2010-09-02 00:08:00",124157,3.706,270.4,15.85,0.473,21.53,110.0718,25.08,25.95,14.22,0,111.3,13.09,25.92,232.4
"2010-09-02 00:08:30",124158,3.83,342.3,10.99,0.672,21.58,110.0749,25.09,25.95,14.27,0,111.3,13.09,25.93,304.3
"2010-09-02 00:09:00",124159,3.002,358.2,8.44,1.091,21.73,110.0845,25.11,25.96,14.51,0,111.3,13.09,25.95,320.2
"2010-09-02 00:09:30",124160,2.09,1.654,11.54,0.832,21.63,110.1063,25.17,25.98,14.68,0,111.3,13.09,26.01,323.7
"2010-09-02 00:10:00",124161,4.59,352.2,8.81,1.135,21.59,110.1094,25.18,26.01,14.57,0,111.3,13.09,26.02,314.2
"2010-09-02 00:10:30",124162,2.056,8.99,12.23,0.628,21.63,110.1251,25.22,26.01,14.47,0,111.3,13.09,26.06,331.0
"2010-09-02 00:11:00",124163,2.916,7.553,12.03,1.176,21.54,110.1347,25.24,26.06,14.26,0,111.3,13.09,26.08,329.6
"2010-09-02 00:11:30",124164,0.879,8.37,17.61,0.402,21.58,110.1389,25.25,26.08,14.45,0,111.3,13.09,26.09,330.4
"2010-09-02 00:12:00",124165,1.669,355.6,15.85,0.609,21.55,110.1653,25.32,26.09,14.11,0,111.3,13.09,26.16,317.6
"2010-09-02 00:12:30",124166,2.856,335.1,14.9,0.335,21.43,110.1448,25.27,26.1,13.81,0,111.3,13.09,26.11,297.1
"2010-09-02 00:13:00",124167,1.985,322.2,5.282,0.486,21.38,110.1347,25.24,26.1,14.04,0,111.3,13.09,26.08,284.2
"2010-09-02 00:13:30",124168,0.88,356.8,19.88,0.522,21.52,110.1291,25.23,26.09,14.4,0,111.3,13.09,26.07,318.8
"2010-09-02 00:14:00",124169,2.618,36.92,18,1.11,21.1,110.1249,25.22,26.07,14.57,0,111.3,13.09,26.06,358.9
"2010-09-02 00:14:30",124170,4.012,38.66,4.759,0.438,20.93,110.0825,25.11,26.02,15.33,0,111.3,13.09,25.95,0.7
"2010-09-02 00:15:00",124171,3.958,37.16,3.776,0.516,21.15,110.0401,25,25.97,15.37,0,111.3,13.09,25.84,359.2
"2010-09-02 00:15:30",124172,3.678,26.46,10.09,0.71,21.19,110.0236,24.96,25.89,15.21,0,111.3,13.09,25.79,348.5
"2010-09-02 00:16:00",124173,3.051,23.57,6.405,0.514,21.24,110.018,24.94,25.86,15,0,111.3,13.09,25.78,345.6
"2010-09-02 00:16:30",124174,1.944,9.19,13.35,0.799,21.34,110.0123,24.93,25.84,14.9,0,111.3,13.09,25.77,331.2
"2010-09-02 00:17:00",124175,2.849,336.7,14.2,0.652,21.38,110.0317,24.98,25.85,14.38,0,111.3,13.09,25.82,298.7
"2010-09-02 00:17:30",124176,2.354,316.5,9.16,0.615,21.26,110.0238,24.96,25.84,14.43,0,111.3,13.09,25.79,278.5
"2010-09-02 00:18:00",124177,1.548,300.1,8.77,0.241,21.11,110.0039,24.9,25.83,14.66,0,111.3,13.09,25.74,262.1
"2010-09-02 00:18:30",124178,1.799,355.5,17.75,0.554,21.37,110,24.89,25.81,14.54,0,111.3,13.09,25.73,317.5
"2010-09-02 00:19:00",124179,2.721,349.5,9.13,0.756,21.41,110.0101,24.92,25.82,14.44,0,111.3,13.09,25.76,311.5
"2010-09-02 00:19:30",124180,3.207,332.8,10.1,0.424,21.26,110.0227,24.95,25.81,14.33,0,111.3,13.09,25.79,294.8
"2010-09-02 00:20:00",124181,3.556,344,11.39,1.241,21.39,110.0098,24.92,25.81,14.44,0,111.3,13.09,25.76,306.0
"2010-09-02 00:20:30",124182,4.565,339.7,7.516,0.882,21.29,110.0022,24.9,25.78,14.47,0,111.3,13.09,25.74,301.7
"2010-09-02 00:21:00",124183,3.796,342,12.2,1.068,21.46,110.0003,24.9,25.78,14.43,0,111.3,13.09,25.73,304.0
"2010-09-02 00:21:30",124184,3.226,312.3,9.31,0.555,21.35,110.0031,24.9,25.78,14.22,0,111.3,13.09,25.74,274.3
"2010-09-02 00:22:00",124185,4.103,315.7,10.75,0.632,21.34,110.0031,24.9,25.78,14.4,0,111.3,13.09,25.74,277.7
"2010-09-02 00:22:30",124186,4.528,324.4,20.02,0.475,21.27,110.0011,24.9,25.76,14.67,0,111.3,13.09,25.74,286.4
"2010-09-02 00:23:00",124187,3.278,345.6,17.79,1.293,21.49,110,24.89,25.76,14.84,0,111.3,13.09,25.73,307.6
"2010-09-02 00:23:30",124188,1.303,5.979,12.71,0.575,21.6,110.0081,24.92,25.77,14.8,0,111.3,13.09,25.75,328.0
"2010-09-02 00:24:00",124189,1.387,4.402,14.6,0.768,21.54,110.0328,24.98,25.79,14.82,0,111.3,13.09,25.82,326.4
"2010-09-02 00:24:30",124190,1.786,15.37,10.88,0.557,21.3,110.0337,24.98,25.82,15.29,0,111.3,13.09,25.82,337.4
"2010-09-02 00:25:00",124191,1.577,16.92,12.15,0.524,21.28,110.0337,24.98,25.82,15.5,0,111.3,13.09,25.82,338.9
"2010-09-02 00:25:30",124192,1.524,16.17,12.83,0.468,21.33,110.0337,24.98,25.82,15.63,0,111.3,13.09,25.82,338.2
"2010-09-02 00:26:00",124193,1.748,356.9,12.71,0.827,21.67,110.0359,24.99,25.81,14.44,0,111.3,13.09,25.83,318.9
"2010-09-02 00:26:30",124194,3.154,354,7.747,0.781,21.68,110.0424,25,25.84,14.22,0,111.3,13.09,25.84,316.0
"2010-09-02 00:27:00",124195,3.412,355.6,7.823,0.753,21.53,110.0609,25.05,25.85,14.29,0,111.3,13.09,25.89,317.6
"2010-09-02 00:27:30",124196,1.699,321.3,5.968,0.264,21.34,110.0634,25.06,25.87,14.25,0,111.3,13.09,25.90,283.3
"2010-09-02 00:28:00",124197,2.663,328.1,10.24,0.453,21.39,110.0449,25.01,25.88,14.23,0,111.3,13.09,25.85,290.1
"2010-09-02 00:28:30",124198,3.338,324.3,4.924,0.301,21.41,110.0354,24.99,25.86,14.32,0,111.3,13.09,25.82,286.3
"2010-09-02 00:29:00",124199,3.138,310.6,8.95,0.292,21.42,110.0337,24.98,25.86,14.32,0,111.3,13.09,25.82,272.6
"2010-09-02 00:29:30",124200,2.241,316.8,8.09,0.419,21.46,110.0337,24.98,25.85,14.26,0,111.3,13.09,25.82,278.8
"2010-09-02 00:30:00",124201,2.734,301.7,13.18,0.443,21.44,110.0337,24.98,25.85,14.1,0,111.3,13.09,25.82,263.7
"2010-09-02 00:30:30",124202,2.324,322,15.17,0.874,21.55,110.0337,24.98,25.84,14.09,0,111.3,13.09,25.82,284.0
"2010-09-02 00:31:00",124203,1.278,342,31.23,0.449,21.48,110.0337,24.98,25.85,14.43,0,111.3,13.09,25.82,304.0
"2010-09-02 00:31:30",124204,1.394,31.54,17.76,0.594,21.35,110.03,24.97,25.84,15.03,0,111.3,13.09,25.81,353.5
"2010-09-02 00:32:00",124205,1.708,38.04,15.69,0.778,21.35,110.0182,24.94,25.83,14.76,0,111.3,13.09,25.78,0.0
"2010-09-02 00:32:30",124206,2.304,345.7,8.44,1.093,21.42,110.0135,24.93,25.82,15.11,0,111.3,13.09,25.77,307.7
"2010-09-02 00:33:00",124207,2.924,353,11.34,0.999,21.47,110,24.89,25.79,15.4,0,111.3,13.09,25.73,315.0
"2010-09-02 00:33:30",124208,1.231,358.6,12.26,0.523,21.6,110,24.89,25.79,15.46,0,111.3,13.09,25.73,320.6
"2010-09-02 00:34:00",124209,2.186,14.93,12.3,0.741,21.29,110.0073,24.91,25.78,15.5,0,111.3,13.09,25.75,336.9
"2010-09-02 00:34:30",124210,2.244,30.72,4.987,0.234,21.17,110,24.89,25.79,15.6,0,111.3,13.09,25.73,352.7
"2010-09-02 00:35:00",124211,2.667,37.08,8.08,0.267,21.2,109.9725,24.82,25.74,15.6,0,111.3,13.09,25.66,359.1
"2010-09-02 00:35:30",124212,2.496,47.67,4.922,0.36,21.23,109.9531,24.77,25.69,15.74,0,111.3,13.09,25.61,9.7
"2010-09-02 00:36:00",124213,3.156,44.33,3.144,0.408,21.27,109.9327,24.72,25.68,15.6,0,111.3,13.09,25.56,6.3
"2010-09-02 00:36:30",124214,3.867,46.23,2.658,0.174,21.3,109.9285,24.71,25.63,15.56,0,111.3,13.09,25.55,8.2
"2010-09-02 00:37:00",124215,3.849,42.88,3.661,0.253,21.3,109.908,24.66,25.61,15.69,0,111.3,13.09,25.50,4.9
"2010-09-02 00:37:30",124216,3.504,31.31,7.069,0.388,21.29,109.8995,24.64,25.59,16.22,0,111.3,13.09,25.47,353.3
"2010-09-02 00:38:00",124217,3.936,19.02,6.572,0.305,21.3,109.899,24.63,25.55,16.32,0,111.3,13.09,25.47,341.0
"2010-09-02 00:38:30",124218,3.451,26.06,7.033,0.675,21.3,109.899,24.63,25.56,16.07,0,111.3,13.09,25.47,348.1
"2010-09-02 00:39:00",124219,2.254,38.99,2.68,0.192,21.31,109.8993,24.64,25.56,15.98,0,111.3,13.09,25.47,1.0
"2010-09-02 00:39:30",124220,2.036,39.43,4.073,0.38,21.28,109.901,24.64,25.55,16.07,0,111.3,13.09,25.48,1.4
"2010-09-02 00:40:00",124221,1.869,52.59,14.19,0.16,21.29,109.8998,24.64,25.55,15.87,0,111.3,13.09,25.47,14.6
"2010-09-02 00:40:30",124222,1.734,75.12,5.639,0.116,21.32,109.899,24.63,25.53,15.84,0,111.3,13.09,25.47,37.1
"2010-09-02 00:41:00",124223,1.502,88.4,9.4,0.203,21.34,109.8908,24.61,25.51,15.73,0,111.3,13.09,25.45,50.4
"2010-09-02 00:41:30",124224,1.492,62.6,17.44,0.253,21.3,109.8729,24.57,25.5,15.95,0,111.3,13.09,25.41,24.6
"2010-09-02 00:42:00",124225,2.085,61.2,13.34,0.412,21.23,109.8653,24.55,25.49,16.26,0,111.3,13.09,25.39,23.2
"2010-09-02 00:42:30",124226,2.361,41.73,5.954,0.317,21.26,109.8645,24.55,25.46,15.95,0,111.3,13.09,25.38,3.7
"2010-09-02 00:43:00",124227,3.206,57.89,7.948,0.268,21.33,109.8504,24.51,25.44,15.9,0,111.3,13.09,25.35,19.9
"2010-09-02 00:43:30",124228,2.865,52.18,2.023,0.165,21.3,109.8437,24.49,25.42,15.8,0,111.3,13.09,25.33,14.2
"2010-09-02 00:44:00",124229,2.92,51.02,3.306,0.215,21.36,109.8398,24.48,25.41,15.51,0,111.3,13.09,25.32,13.0
"2010-09-02 00:44:30",124230,2.387,64.07,6.327,0.231,21.39,109.8406,24.49,25.41,15.49,0,111.3,13.09,25.32,26.1
"2010-09-02 00:45:00",124231,2.012,78.17,5.384,0.205,21.47,109.8465,24.5,25.41,15.41,0,111.3,13.09,25.34,40.2
"2010-09-02 00:45:30",124232,1.163,94.3,16.78,0.29,21.64,109.8645,24.55,25.43,14.66,0,111.3,13.09,25.38,56.3
"2010-09-02 00:46:00",124233,0.941,89.7,27.57,0.263,21.57,109.8914,24.62,25.45,14.57,0,111.3,13.09,25.45,51.7
"2010-09-02 00:46:30",124234,1.146,94.8,16.9,0.353,21.39,109.899,24.63,25.45,14.94,0,111.3,13.09,25.47,56.8
"2010-09-02 00:47:00",124235,0.694,40.24,28.03,0.222,21.44,109.9004,24.64,25.49,15.05,0,111.3,13.09,25.48,2.2
"2010-09-02 00:47:30",124236,0.865,24.33,10.67,0.176,21.36,109.9113,24.67,25.51,15.31,0,111.3,13.09,25.50,346.3
"2010-09-02 00:48:00",124237,0.904,20.19,10.03,0.291,21.39,109.9273,24.71,25.53,15.26,0,111.3,13.1,25.55,342.2
"2010-09-02 00:48:30",124238,1.051,3.875,30.28,0.214,21.3,109.9327,24.72,25.55,15.16,0,111.3,13.09,25.56,325.9
"2010-09-02 00:49:00",124239,0.3,294.5,24.84,0.155,21.23,109.9321,24.72,25.57,15.22,0,111.3,13.09,25.56,256.5
"2010-09-02 00:49:30",124240,0.696,233,12.66,0.159,21.4,109.9327,24.72,25.55,14.65,0,111.3,13.09,25.56,195.0
"2010-09-02 00:50:00",124241,0.9,228.9,10.45,0.203,21.42,109.9327,24.72,25.58,14.5,0,111.3,13.09,25.56,190.9
"2010-09-02 00:50:30",124242,0.334,196.2,69.94,0.354,21.39,109.933,24.72,25.58,14.6,0,111.3,13.1,25.56,158.2
"2010-09-02 00:51:00",124243,0.039,350.8,36.89,0.114,21.4,109.9346,24.73,25.6,14.55,0,111.3,13.09,25.56,312.8
"2010-09-02 00:51:30",124244,0.649,18.52,42.5,0.599,21.33,109.9551,24.78,25.61,14.56,0,111.3,13.1,25.62,340.5
"2010-09-02 00:52:00",124245,0.918,327.1,11.92,0.267,21.23,109.966,24.81,25.63,14.75,0,111.3,13.09,25.65,289.1
"2010-09-02 00:52:30",124246,0.947,325.9,18.9,0.255,21.3,109.9576,24.79,25.63,14.91,0,111.3,13.1,25.62,287.9
"2010-09-02 00:53:00",124247,1.423,288.9,11.98,0.267,21.3,109.945,24.75,25.64,14.73,0,111.3,13.09,25.59,250.9
"2010-09-02 00:53:30",124248,0.836,320.4,17.75,0.304,21.26,109.9332,24.72,25.63,15.03,0,111.3,13.09,25.56,282.4
"2010-09-02 00:54:00",124249,0.442,359.4,21.33,0.216,21.42,109.9366,24.73,25.62,15.26,0,111.3,13.09,25.57,321.4
"2010-09-02 00:54:30",124250,0.757,340.6,25.14,0.249,21.39,109.9495,24.76,25.63,15.15,0,111.3,13.09,25.60,302.6
"2010-09-02 00:55:00",124251,1.135,29.97,13.2,0.479,21.21,109.9433,24.75,25.61,15.47,0,111.3,13.09,25.59,352.0
"2010-09-02 00:55:30",124252,2.351,44.68,9.71,0.297,21.22,109.9327,24.72,25.63,15.52,0,111.3,13.1,25.56,6.7
"2010-09-02 00:56:00",124253,1.38,48.14,12.77,0.498,21.32,109.9223,24.69,25.62,15.6,0,111.3,13.09,25.53,10.1
"2010-09-02 00:56:30",124254,0.735,13.84,29.75,0.306,21.29,109.9038,24.65,25.59,15.72,0,111.3,13.09,25.49,335.8
"2010-09-02 00:57:00",124255,1.341,35.89,14.16,0.241,21.2,109.904,24.65,25.57,16.02,0,111.3,13.09,25.49,357.9
"2010-09-02 00:57:30",124256,1.168,51.58,9.79,0.234,21.15,109.8939,24.62,25.56,16.03,0,111.3,13.09,25.46,13.6
"2010-09-02 00:58:00",124257,0.61,75.06,26.18,0.208,21.19,109.8656,24.55,25.53,16.16,0,111.3,13.09,25.39,37.1
"2010-09-02 00:58:30",124258,0.543,75.07,12.13,0.112,21.12,109.8384,24.48,25.48,16.56,0,111.3,13.09,25.32,37.1
"2010-09-02 00:59:00",124259,0.426,61.68,41.27,0.466,21.23,109.8311,24.46,25.43,16.4,0,111.3,13.09,25.30,23.7
"2010-09-02 00:59:30",124260,1.382,60.47,25.26,0.395,21.25,109.8072,24.4,25.41,16.4,0,111.3,13.09,25.24,22.5
"2010-09-02 01:00:00",124261,0.891,38.62,33.62,0.432,21.42,109.798,24.38,25.4,16.37,0,111.3,13.09,25.21,0.6
"2010-09-02 01:00:30",124262,0.486,352.4,25.91,0.242,21.44,109.8053,24.39,25.36,16.46,0,111.3,13.09,25.23,314.4
"2010-09-02 01:01:00",124263,0.794,62.44,14.36,0.363,21.37,109.7999,24.38,25.35,16.59,0,111.3,13.09,25.22,24.4
"2010-09-02 01:01:30",124264,0.085,74.48,50.25,0.144,21.44,109.7974,24.37,25.33,16.58,0,111.3,13.09,25.21,36.5
"2010-09-02 01:02:00",124265,0.648,89.2,14.84,0.253,21.39,109.7938,24.36,25.3,16.43,0,111.3,13.09,25.20,51.2
"2010-09-02 01:02:30",124266,1.145,85.2,10.01,0.201,21.3,109.7793,24.33,25.3,16.33,0,111.3,13.09,25.16,47.2
"2010-09-02 01:03:00",124267,1.295,52.72,8.84,0.163,21.17,109.7663,24.29,25.28,16.89,0,111.3,13.09,25.13,14.7
"2010-09-02 01:03:30",124268,1.171,26.55,6.842,0.242,21.36,109.7653,24.29,25.23,16.84,0,111.3,13.09,25.13,348.5
"2010-09-02 01:04:00",124269,1.107,40.05,8.85,0.199,21.37,109.7668,24.3,25.22,16.61,0,111.3,13.1,25.13,2.0
"2010-09-02 01:04:30",124270,1.005,39.29,17.26,0.3,21.38,109.7686,24.3,25.22,16.69,0,111.3,13.1,25.14,1.3
"2010-09-02 01:05:00",124271,0.599,358.3,15.2,0.338,21.63,109.7819,24.33,25.22,16.83,0,111.3,13.1,25.17,320.3
"2010-09-02 01:05:30",124272,1.056,354.9,8.6,0.391,21.66,109.8111,24.41,25.23,16.74,0,111.3,13.1,25.25,316.9
"2010-09-02 01:06:00",124273,1.049,349.5,12.89,0.276,21.49,109.8121,24.41,25.25,16.63,0,111.3,13.1,25.25,311.5
"2010-09-02 01:06:30",124274,0.753,352.6,16.27,0.294,21.55,109.8165,24.42,25.26,16.53,0,111.3,13.1,25.26,314.6
"2010-09-02 01:07:00",124275,0.483,8.89,15.09,0.256,21.58,109.8305,24.46,25.27,16.51,0,111.3,13.1,25.30,330.9
"2010-09-02 01:07:30",124276,0.925,15.62,3.635,0.117,21.41,109.8551,24.52,25.29,16.65,0,111.3,13.1,25.36,337.6
"2010-09-02 01:08:00",124277,0.652,13.65,8.38,0.108,21.44,109.8657,24.55,25.32,16.74,0,111.3,13.1,25.39,335.6
"2010-09-02 01:08:30",124278,0.409,9.58,11.46,0.174,21.54,109.8776,24.58,25.35,16.75,0,111.3,13.1,25.42,331.6
"2010-09-02 01:09:00",124279,0.479,16.37,10.94,0.239,21.51,109.8675,24.55,25.36,16.68,0,111.3,13.1,25.39,338.4
"2010-09-02 01:09:30",124280,0.796,19.33,10.85,0.223,21.47,109.8594,24.53,25.37,16.72,0,111.3,13.1,25.37,341.3
"2010-09-02 01:10:00",124281,0.284,15.51,19.97,0.195,21.59,109.8538,24.52,25.35,16.79,0,111.3,13.1,25.36,337.5
"2010-09-02 01:10:30",124282,0.844,40.08,14.46,0.273,21.36,109.8288,24.45,25.33,16.81,0,111.3,13.1,25.29,2.1
"2010-09-02 01:11:00",124283,0.864,45.08,13.41,0.212,21.36,109.799,24.38,25.3,16.86,0,111.3,13.1,25.22,7.1
"2010-09-02 01:11:30",124284,0.627,32.35,8.55,0.119,21.39,109.785,24.34,25.27,16.94,0,111.3,13.1,25.18,354.4
"2010-09-02 01:12:00",124285,0.228,45.36,6.415,0.14,21.43,109.7643,24.29,25.24,16.94,0,111.3,13.1,25.13,7.4
"2010-09-02 01:12:30",124286,-0.04,36.94,24.14,0.092,21.48,109.7645,24.29,25.21,16.92,0,111.3,13.1,25.13,358.9
"2010-09-02 01:13:00",124287,0.008,176.5,83.5,0.19,21.56,109.7492,24.25,25.17,16.81,0,111.3,13.1,25.09,138.5
"2010-09-02 01:13:30",124288,0.424,79.83,9.71,0.145,21.51,109.7353,24.21,25.15,16.86,0,111.2,13.1,25.05,41.8
"2010-09-02 01:14:00",124289,0.611,98.9,11.16,0.158,21.51,109.7339,24.21,25.14,16.88,0,111.3,13.1,25.05,60.9
"2010-09-02 01:14:30",124290,0.336,130.1,26.25,0.218,21.53,109.7322,24.21,25.11,16.91,0,111.2,13.1,25.04,92.1
"2010-09-02 01:15:00",124291,0.352,96.7,26.43,0.144,21.59,109.7165,24.17,25.1,16.88,0,111.2,13.09,25.00,58.7
"2010-09-02 01:15:30",124292,1.013,101,16.16,0.425,21.57,109.7151,24.16,25.08,16.86,0,111.2,13.09,25.00,63.0
"2010-09-02 01:16:00",124293,0.866,80.1,19.84,0.15,21.62,109.7235,24.18,25.07,16.77,0,111.2,13.09,25.02,42.1
"2010-09-02 01:16:30",124294,1.067,73.22,11.04,0.116,21.64,109.7261,24.19,25.06,16.85,0,111.2,13.09,25.03,35.2
"2010-09-02 01:17:00",124295,0.897,78.31,5.312,0.171,21.63,109.7241,24.19,25.05,16.86,0,111.2,13.09,25.02,40.3
"2010-09-02 01:17:30",124296,1.195,70.97,11.27,0.223,21.64,109.7202,24.18,25.05,16.87,0,111.2,13.1,25.01,33.0
"2010-09-02 01:18:00",124297,1.706,53.26,5.053,0.225,21.65,109.7207,24.18,25.05,16.69,0,111.2,13.09,25.01,15.3
"2010-09-02 01:18:30",124298,1.662,47.4,3.826,0.399,21.68,109.7202,24.18,25.05,16.62,0,111.2,13.1,25.01,9.4
"2010-09-02 01:19:00",124299,1.166,45.34,6.094,0.199,21.66,109.7235,24.18,25.04,16.63,0,111.2,13.1,25.02,7.3
"2010-09-02 01:19:30",124300,1.377,50.36,7.673,0.268,21.67,109.7176,24.17,25.05,16.63,0,111.2,13.1,25.01,12.4
"2010-09-02 01:20:00",124301,1.181,55.47,5.467,0.118,21.76,109.7263,24.19,25.04,16.68,0,111.2,13.1,25.03,17.5
"2010-09-02 01:20:30",124302,1.397,59.59,11.21,0.398,21.64,109.7224,24.18,25.04,16.6,0,111.2,13.1,25.02,21.6
"2010-09-02 01:21:00",124303,1.683,55.65,5.405,0.327,21.69,109.7013,24.13,25.03,16.57,0,111.2,13.1,24.96,17.7
"2010-09-02 01:21:30",124304,1.588,54.21,9.57,0.292,21.72,109.7005,24.13,25.02,16.49,0,111.2,13.1,24.96,16.2
"2010-09-02 01:22:00",124305,1.645,60.9,6.616,0.281,21.78,109.6947,24.11,25,16.48,0,111.2,13.11,24.95,22.9
"2010-09-02 01:22:30",124306,1.553,66.06,6.399,0.195,21.83,109.69,24.1,25,16.49,0,111.2,13.11,24.93,28.1
"2010-09-02 01:23:00",124307,1.644,66.05,5.876,0.189,21.72,109.6829,24.08,25.01,16.49,0,111.2,13.11,24.92,28.1
"2010-09-02 01:23:30",124308,1.055,67.25,11.77,0.342,21.72,109.6779,24.07,24.98,16.49,0,111.2,13.11,24.90,29.2
"2010-09-02 01:24:00",124309,0.55,62.97,44.48,0.154,21.84,109.6823,24.08,24.98,16.55,0,111.2,13.11,24.91,25.0
"2010-09-02 01:24:30",124310,0.372,11.62,55.57,0.324,21.94,109.6872,24.09,24.95,16.77,0,111.2,13.11,24.93,333.6
"2010-09-02 01:25:00",124311,0.871,356,12.2,0.269,21.93,109.693,24.11,24.95,16.78,0,111.2,13.11,24.94,318.0
"2010-09-02 01:25:30",124312,1.201,26.44,6.5,0.178,21.83,109.6943,24.11,24.95,16.74,0,111.2,13.11,24.95,348.4
"2010-09-02 01:26:00",124313,1.335,27.88,11.44,0.345,21.76,109.6943,24.11,24.97,16.69,0,111.2,13.11,24.95,349.9
"2010-09-02 01:26:30",124314,0.981,12.46,9.49,0.403,21.76,109.6932,24.11,24.95,16.69,0,111.2,13.11,24.94,334.5
"2010-09-02 01:27:00",124315,0.361,8.13,8.67,0.177,21.74,109.679,24.07,24.95,16.7,0,111.2,13.12,24.91,330.1
"2010-09-02 01:27:30",124316,0.006,356.9,32.85,0.114,21.88,109.6728,24.05,24.94,16.72,0,111.2,13.12,24.89,318.9
"2010-09-02 01:28:00",124317,0.091,20.96,59.96,0.253,21.86,109.6741,24.06,24.91,16.66,0,111.2,13.12,24.89,343.0
"2010-09-02 01:28:30",124318,1.195,37.26,21.29,0.445,21.84,109.6709,24.05,24.92,16.53,0,111.2,13.12,24.88,359.3
"2010-09-02 01:29:00",124319,1.299,25.13,6.052,0.206,21.84,109.6698,24.05,24.91,16.56,0,111.2,13.12,24.88,347.1
"2010-09-02 01:29:30",124320,1.337,32.67,9.57,0.35,21.85,109.6698,24.05,24.91,16.63,0,111.1,13.12,24.88,354.7
"2010-09-02 01:30:00",124321,0.745,338.1,47.92,0.332,21.88,109.6698,24.05,24.9,16.64,0,111.1,13.12,24.88,300.1
"2010-09-02 01:30:30",124322,0.625,319.2,31.03,0.33,21.92,109.6698,24.05,24.9,16.7,0,111.1,13.12,24.88,281.2
"2010-09-02 01:31:00",124323,0.415,34.14,23.61,0.235,21.91,109.6698,24.05,24.91,16.61,0,111.1,13.11,24.88,356.1
"2010-09-02 01:31:30",124324,0.646,54.65,14.43,0.085,21.94,109.6698,24.05,24.91,16.49,0,111.1,13.11,24.88,16.7
"2010-09-02 01:32:00",124325,0.591,43.67,13.28,0.243,21.93,109.6698,24.05,24.9,16.52,0,111.1,13.11,24.88,5.7
"2010-09-02 01:32:30",124326,0.353,73.56,28.5,0.103,21.95,109.6698,24.05,24.92,16.51,0,111.1,13.11,24.88,35.6
"2010-09-02 01:33:00",124327,0.726,81.4,23.68,0.226,21.92,109.6698,24.05,24.91,16.5,0,111.1,13.11,24.88,43.4
"2010-09-02 01:33:30",124328,0.553,47.03,6.69,0.137,21.93,109.6701,24.05,24.9,16.48,0,111.1,13.11,24.88,9.0
"2010-09-02 01:34:00",124329,0.214,36.92,30.57,0.156,21.97,109.669,24.04,24.9,16.5,0,111.1,13.11,24.88,358.9
"2010-09-02 01:34:30",124330,0.536,356.5,15.65,0.183,21.96,109.6775,24.07,24.91,16.5,0,111.1,13.12,24.90,318.5
"2010-09-02 01:35:00",124331,0.287,22.6,7.886,0.091,21.93,109.6818,24.08,24.92,16.49,0,111.1,13.12,24.91,344.6
"2010-09-02 01:35:30",124332,0.44,28.46,12.14,0.116,21.94,109.6899,24.1,24.91,16.47,0,111.1,13.12,24.93,350.5
"2010-09-02 01:36:00",124333,0.365,21.73,13.36,0.163,21.97,109.6795,24.07,24.92,16.47,0,111.1,13.12,24.91,343.7
"2010-09-02 01:36:30",124334,0.332,59.66,16.84,0.107,22.02,109.6694,24.05,24.92,16.44,0,111.1,13.12,24.88,21.7
"2010-09-02 01:37:00",124335,0.297,52.08,21.26,0.088,22.02,109.6725,24.05,24.92,16.42,0,111.1,13.12,24.89,14.1
"2010-09-02 01:37:30",124336,0.375,24.94,10.82,0.12,21.98,109.6733,24.06,24.91,16.43,0,111.1,13.13,24.89,346.9
"2010-09-02 01:38:00",124337,0.914,47.36,8.57,0.265,21.99,109.6813,24.08,24.91,16.36,0,111.1,13.13,24.91,9.4
"2010-09-02 01:38:30",124338,0.592,57.13,18.57,0.188,21.99,109.6854,24.09,24.92,16.37,0,111.1,13.13,24.92,19.1
"2010-09-02 01:39:00",124339,1.156,44.71,2.026,0.15,21.98,109.6826,24.08,24.92,16.28,0,111.1,13.13,24.92,6.7
"2010-09-02 01:39:30",124340,0.992,41.52,7.715,0.159,22,109.688,24.09,24.93,16.29,0,111.1,13.13,24.93,3.5
"2010-09-02 01:40:00",124341,1.221,42.86,9.33,0.173,21.96,109.6865,24.09,24.93,16.32,0,111.1,13.13,24.93,4.9
"2010-09-02 01:40:30",124342,0.605,57.49,19.01,0.096,21.98,109.6787,24.07,24.93,16.34,0,111.1,13.13,24.90,19.5
"2010-09-02 01:41:00",124343,1.01,339.4,26.14,0.592,22.09,109.6731,24.05,24.94,16.28,0,111.1,13.14,24.89,301.4
"2010-09-02 01:41:30",124344,1.836,332.7,10.68,0.224,22.07,109.6778,24.07,24.93,16.26,0,111.1,13.14,24.90,294.7
"2010-09-02 01:42:00",124345,1.525,315.5,5.189,0.174,22.02,109.6913,24.1,24.95,16.18,0,111.1,13.14,24.94,277.5
"2010-09-02 01:42:30",124346,1.19,335,14.47,0.144,21.98,109.7068,24.14,24.97,16.2,0,111,13.14,24.98,297.0
"2010-09-02 01:43:00",124347,0.778,8.88,14.43,0.285,21.93,109.7068,24.14,24.97,16.2,0,111.1,13.14,24.98,330.9
"2010-09-02 01:43:30",124348,0.942,337.6,38.78,0.315,22.01,109.7057,24.14,24.98,16.13,0,111.1,13.14,24.97,299.6
"2010-09-02 01:44:00",124349,0.832,304.2,8.01,0.156,22.12,109.708,24.14,24.97,16.05,0,111.1,13.14,24.98,266.2
"2010-09-02 01:44:30",124350,0.848,319.1,13.26,0.187,22.12,109.7125,24.16,25.01,16,0,111,13.14,24.99,281.1
"2010-09-02 01:45:00",124351,1.053,328.4,11.47,0.14,22.09,109.7268,24.19,25.02,15.99,0,111.1,13.14,25.03,290.4
"2010-09-02 01:45:30",124352,0.905,322.2,20.8,0.262,22.08,109.7374,24.22,25.03,15.96,0,111,13.14,25.06,284.2
"2010-09-02 01:46:00",124353,1.011,358.1,18.19,0.277,22.06,109.7423,24.23,25.03,16,0,111,13.14,25.07,320.1
"2010-09-02 01:46:30",124354,1.091,16.24,8.66,0.22,22.13,109.7356,24.22,25.04,15.93,0,111,13.14,25.05,338.2
"2010-09-02 01:47:00",124355,0.667,27.04,15.48,0.187,21.97,109.7348,24.21,25.03,16,0,111,13.14,25.05,349.0
"2010-09-02 01:47:30",124356,0.344,15.49,28.5,0.257,22.01,109.7364,24.22,25.04,16.04,0,111,13.14,25.05,337.5
"2010-09-02 01:48:00",124357,0.066,4.475,23.27,0.125,21.99,109.7397,24.23,25.04,16.04,0,111,13.14,25.06,326.5
"2010-09-02 01:48:30",124358,0.477,327.2,11.92,0.207,22.11,109.7425,24.23,25.06,15.94,0,111,13.14,25.07,289.2